Location: Budapest
(47.4979°N, 19.0402°E)
Time: 23:22:19
(UTC+01:00)

Tiangong 2 - Pass Details

Date: 10 October 2017
Orbit: 386 x 390 km, 42.8° (Epoch: 13 December)

Event Time Altitude Azimuth Distance (km) Brightness Sun altitude
Exits shadow 05:27:04 12° 195° (SSW) 1,290 3.5 -15.7°
Maximum altitude 05:28:48 18° 158° (SSE) 1,059 3.4 -15.4°
Drops below altitude 10° 05:31:02 10° 113° (ESE) 1,424 4.9 -15.0°
Sets 05:33:34 0° 93° (E) 2,284 6.8 -14.6°
